Regional Weather Roundup
Issued by NWS Jackson, KY

Home | Current Version | Previous Version | Text Only | Print | Product List | Glossary On
Versions: 1 2 3 4 5 6 7 8 9 10 11 12 13 14 15 16 17 18 19 20 21 22 23 24 25 26 27 28 29 30 31 32 33 34 35 36 37 38 39 40 41 42 43 44 45 46 47 48 49 50
000
ASUS43 KJKL 050110
RWRJKL

EAST KENTUCKY HOURLY WEATHER ROUNDUP
NATIONAL WEATHER SERVICE JACKSON KY
900 PM EDT FRI SEP 04 2015

NOTE: "FAIR" INDICATES FEW OR NO CLOUDS BELOW 12,000 FEET WITH
NO SIGNIFICANT WEATHER AND/OR OBSTRUCTIONS TO VISIBILITY.

* THESE REPORTS ARE NOT UNDER NWS QUALITY CONTROL AND MAY NOT
  REPORT WEATHER SUCH AS PRECIPITATION AND FOG.

KYZ079-080-083-085-087-088-110-112-115-119-120-050200
...EASTERN KENTUCKY...

CITY           SKY/WX    TMP DP  RH WIND       PRES   REMARKS
JACKSON        CLEAR     78  66  66 VRB3      30.10R
LONDON         CLEAR     79  65  62 NE5       30.08R
SOMERSET*      PTCLDY    75  68  78 CALM      30.07R
MONTICELLO*    CLEAR     73  70  91 CALM      30.09R
MIDDLESBORO*   CLEAR     75  68  77 W3        30.08R
HARLAN APT*      N/A     75  63  64 MISG      30.11R
HAZARD APT*    CLEAR     77  68  73 CALM      30.10R
PIKEVILLE APT* CLEAR     77  70  78 N3        30.11R
BIG SANDY*     CLEAR     76  70  81 CALM      30.10R
MOREHEAD APT*  MOCLDY    81  66  61 CALM      30.10R
$$

KYZ035-036-041-042-044-050-067-078-099-050200
...CENTRAL KENTUCKY...

CITY           SKY/WX    TMP DP  RH WIND       PRES   REMARKS
MT STERLING*   PTCLDY   N/A N/A N/A E7        30.09R
FLEMING/MASON* DRIZZLE   72  66  83 E5        30.10S
DANVILLE*      CLEAR     77  64  65 W3        30.08R
RICHMOND*      PTCLDY    79  64  61 CALM      30.07R
LEXINGTON      PTCLDY    82  64  54 E5        30.07R
FRANKFORT      CLEAR     77  68  73 CALM      30.05R
$$

KYZ091>093-OHZ055-061-077-WVZ005-015-034-035-042-050200
...SOUTHERN OHIO/WEST VIRGINIA...

CITY           SKY/WX    TMP DP  RH WIND       PRES   REMARKS
COVINGTON      TSTM      71  67  87 N9        30.13R
COLUMBUS       CLOUDY    69  66  90 W10       30.09R
DAYTON         RAIN      68  66  93 S12       30.10F
WILMINGTON     CLOUDY    73  64  73 NW10      30.14R THUNDER
HUNTINGTON     PTCLDY    73  68  84 N3        30.08R THUNDER
CHARLESTON     MOCLDY    78  69  73 CALM      30.08R
PINEVILLE*     PTCLDY    71  69  95 MISG      30.19R
BECKLEY        LGT RAIN  68  64  87 CALM      30.20R
BLUEFIELD      MOCLDY    70  64  81 CALM      30.20R
$$

VAZ002-007-008-TNZ017-027-036-066-071-050200
...SOUTHWEST VIRGINIA/EAST TENNESSEE...

CITY           SKY/WX    TMP DP  RH WIND       PRES   REMARKS
WISE*          PTCLDY    73  63  68 N5        30.19R
JONESVILLE*    PTCLDY    77  70  78 CALM      30.11R
ABINGDON*      CLEAR     79  62  55 NE6       30.14R
BRISTOL        MOCLDY    77  66  68 CALM      30.09R
KNOXVILLE      CLEAR     82  64  54 NE3       30.02R
OAK RIDGE      CLEAR     79  71  76 CALM      30.05R
CROSSVILLE     CLEAR     74  66  76 CALM      30.10R
NASHVILLE      PTCLDY    86  63  45 E3        30.01R
$$

...KEY TO REMARKS...
VSB - VISIBILITY IN MILES
WCI - WIND CHILL INDEX
HX  - HEAT INDEX

$$



USA.gov is the U.S. government's official web portal to all federal, state and local government web resources and services.